Weather History for West Palm Beach, FL

Change the Weather History Date:

Wednesday, September 11, 2013

  Actual Average Record
Temperature  
Mean Temperature 79 °F 82 °F  
Max Temperature 84 °F 89 °F 95 °F (1948)
Min Temperature 74 °F 75 °F 68 °F (1984)
Degree Days  
Heating Degree Days 0 0  
Month to date heating degree days 0 0  
Since 1 July heating degree days 0 0  
Cooling Degree Days 14 17  
Month to date cooling degree days 197 187  
Year to date cooling degree days 3081 2893  
Growing Degree Days 28 (Base 50)    
Moisture  
Dew Point 74 °F    
Average Humidity 77    
Maximum Humidity 85    
Minimum Humidity 69    
Precipitation  
Precipitation 0.25 in 0.28 in 2.25 in (1963)
Month to date precipitation 1.79 3.06  
Year to date precipitation 49.41 43.78  
Snow  
Snow 0.00 in - - ()
Month to date snowfall 0.0  
Since 1 July snowfall 0.0  
Since 1 September snowfall 0.0  
Snow Depth 0.00 in    
Sea Level Pressure  
Sea Level Pressure 30.02 in    
Wind  
Wind Speed 7 mph (ESE)    
Max Wind Speed 20 mph    
Max Gust Speed 28 mph    
Visibility 9 miles    
Events Rain , Thunderstorm    
T = Trace of Precipitation, MM = Missing Value Source: NWS Daily Summary

Daily Weather History Graph

Daily Weather History Graph

Search for Another Location

Airport:

Trip Planner

Search our weather history database for the weather conditions in past years. The results will help you decide how hot, cold, wet, or windy it might be!

Date:

Astronomy

Sep. 11, 2013 Rise Set
Actual Time 7:04 AM EDT 7:29 PM EDT
Civil Twilight 6:41 AM EDT 7:52 PM EDT
Nautical Twilight 6:13 AM EDT 8:19 PM EDT
Astronomical Twilight 5:46 AM EDT 8:47 PM EDT
Moon 12:55 PM EDT (9/11) 11:59 PM EDT (9/11)
Length of Visible Light 13h 11m
Length of Day
12h 24m
Waxing Crescent, 38% of the Moon is Illuminated
Sep 11
Waxing Crescent
Sep 12
First Quarter
Sep 19
Full
Sep 26
Last Quarter
Oct 4
New

Hourly Weather History & Observations

Time (EDT) Temp. Heat Index Dew Point Humidity Pressure Visibility Wind Dir Wind Speed Gust Speed Precip Events Conditions
12:53 AM 82.0 °F 88.6 °F 75.0 °F 79% 30.01 in 10.0 mi ESE 10.4 mph - N/A   Scattered Clouds
1:53 AM 80.1 °F 84.2 °F 73.0 °F 79% 30.01 in 10.0 mi ESE 6.9 mph - N/A   Scattered Clouds
2:53 AM 80.1 °F 83.8 °F 72.0 °F 76% 29.99 in 10.0 mi ESE 9.2 mph - N/A   Clear
3:53 AM 80.1 °F 84.2 °F 73.0 °F 79% 29.98 in 10.0 mi East 5.8 mph - N/A   Partly Cloudy
4:53 AM 81.0 °F 86.2 °F 73.9 °F 79% 29.98 in 10.0 mi East 8.1 mph - N/A   Partly Cloudy
5:53 AM 81.0 °F 86.2 °F 73.9 °F 79% 30.00 in 10.0 mi East 8.1 mph - N/A   Scattered Clouds
6:53 AM 80.1 °F 85.4 °F 75.9 °F 87% 30.01 in 10.0 mi Calm Calm - 0.03 in Rain Light Rain
7:53 AM 82.9 °F 90.8 °F 75.9 °F 79% 30.02 in 10.0 mi East 9.2 mph - 0.00 in Rain Light Rain
8:04 AM 82.4 °F 89.5 °F 75.2 °F 79% 30.02 in 10.0 mi SE 6.9 mph - 0.00 in Rain , Thunderstorm Light Thunderstorms and Rain
8:16 AM 82.4 °F 90.9 °F 77.0 °F 84% 30.03 in 10.0 mi ESE 6.9 mph - 0.00 in Rain , Thunderstorm Light Thunderstorms and Rain
8:31 AM 75.2 °F - 71.6 °F 89% 30.04 in 10.0 mi South 19.6 mph 27.6 mph 0.01 in Rain , Thunderstorm Light Thunderstorms and Rain
8:41 AM 73.4 °F - 71.6 °F 94% 30.03 in 10.0 mi South 11.5 mph - 0.01 in Rain , Thunderstorm Light Thunderstorms and Rain
8:45 AM 73.4 °F - 71.6 °F 94% 30.03 in 1.0 mi SSE 16.1 mph - 0.01 in Rain , Thunderstorm Heavy Thunderstorms and Rain
8:49 AM 75.2 °F - 73.4 °F 94% 30.02 in 0.8 mi SE 10.4 mph 19.6 mph 0.14 in Rain , Thunderstorm Heavy Thunderstorms and Rain
8:53 AM 75.0 °F - 73.9 °F 96% 30.03 in 3.0 mi SSE 8.1 mph - 0.21 in Rain , Thunderstorm Thunderstorms and Rain
9:38 AM 75.2 °F - 73.4 °F 94% 30.06 in 10.0 mi North 11.5 mph - 0.01 in Rain , Thunderstorm Light Thunderstorms and Rain
9:53 AM 75.9 °F - 73.0 °F 91% 30.06 in 10.0 mi North 13.8 mph - 0.01 in Thunderstorm Thunderstorm
10:35 AM 78.8 °F - 75.2 °F 89% 30.06 in 10.0 mi NE 5.8 mph - N/A   Mostly Cloudy
10:49 AM 78.8 °F - 75.2 °F 89% 30.05 in 10.0 mi NE 10.4 mph - 0.00 in Rain , Thunderstorm Light Thunderstorms and Rain
10:53 AM 79.0 °F - 75.0 °F 88% 30.05 in 10.0 mi NE 6.9 mph - 0.00 in Rain , Thunderstorm Light Thunderstorms and Rain
11:45 AM 78.8 °F - 73.4 °F 83% 30.06 in 10.0 mi SE 13.8 mph - 0.00 in   Overcast
11:53 AM 77.0 °F - 73.0 °F 88% 30.06 in 10.0 mi SSE 8.1 mph - 0.00 in   Overcast
12:53 PM 79.0 °F - 73.0 °F 82% 30.05 in 10.0 mi SE 4.6 mph - 0.00 in Rain Light Rain
1:53 PM 82.9 °F 88.0 °F 72.0 °F 69% 30.03 in 10.0 mi East 6.9 mph - 0.00 in   Mostly Cloudy
2:53 PM 82.9 °F 88.0 °F 72.0 °F 69% 30.02 in 10.0 mi East 10.4 mph - N/A   Mostly Cloudy
3:53 PM 82.9 °F 90.2 °F 75.0 °F 77% 30.00 in 10.0 mi ENE 5.8 mph - N/A   Mostly Cloudy
4:53 PM 82.0 °F 88.6 °F 75.0 °F 79% 29.99 in 10.0 mi SE 8.1 mph - N/A   Mostly Cloudy
5:53 PM 82.9 °F 90.2 °F 75.0 °F 77% 29.99 in 10.0 mi East 6.9 mph - N/A   Mostly Cloudy
6:53 PM 81.0 °F 86.7 °F 75.0 °F 82% 30.00 in 10.0 mi East 9.2 mph - N/A   Mostly Cloudy
7:53 PM 81.0 °F 86.7 °F 75.0 °F 82% 30.00 in 10.0 mi ENE 4.6 mph - N/A   Mostly Cloudy
8:53 PM 81.0 °F 86.7 °F 75.0 °F 82% 30.01 in 10.0 mi Calm Calm - N/A   Mostly Cloudy
9:53 PM 81.0 °F 86.2 °F 73.9 °F 79% 30.02 in 10.0 mi ENE 5.8 mph - N/A   Scattered Clouds
10:53 PM 81.0 °F 86.7 °F 75.0 °F 82% 30.02 in 10.0 mi East 5.8 mph - N/A   Scattered Clouds
11:53 PM 81.0 °F 87.3 °F 75.9 °F 85% 30.01 in 10.0 mi ESE 6.9 mph - N/A   Scattered Clouds